Location: Belloy
(55.7522°N, 118.2333°W)
Time: 23:45:36
(UTC+00:00)

Envisat - Pass Details

Date: 01 December 2021
Orbit: 764 x 766 km, 98.2° (Epoch: 27 January)

Event Time Altitude Azimuth Distance (km) Brightness Sun altitude
Rises 00:20:46 0° 182° (S) 3,223 6.7 -7.2°
Reaches altitude 10° 00:23:09 10° 188° (S) 2,302 6.0 -7.5°
Maximum altitude 00:28:01 46° 262° (W) 1,027 4.3 -8.1°
Drops below altitude 10° 00:32:56 10° 335° (NNW) 2,318 5.5 -8.8°
Sets 00:35:21 0° 342° (NNW) 3,250 6.2 -9.1°
